contact:dominique.lefevre@mio.osupytheas.fr, maurice.libes@osupytheas.fr
Project:EMSO Ligure-ouest http://www.emso-fr.org/EMSO-France
Sensor Aquadopp, line 13 Serial AQD14315 
DOI : "https://doi.org/10.17882/74513; https://doi.org/10.17882/83244" 
Title:EMSO Ligure Ouest : Data ligne ALBATROSS capteur AQUADOPP - deploiement 2021
Id,Date,Profondeur,Latitude,Longitude,X_East,Y_North,Z_Up,Amplitude_X,Amplitude_Y,Amplitude_Z,Batterie,SoundSpeed,Heading,Pitch,Roll,Pressure,Temperature,Speed,Direction
, , m, degrees North, degrees East, m.s-1, m.s-1,m.s-1, 1, 1, 1, Volt, m.s-1, degree, degree, degree, dbar, degree_C, m.s-1, degree
13,2022-09-24T23:30:00,2400.0,42.79,6.0312,-0.003,0.013,-0.019,64.0,53.0,60.0,12.8,1504.9,127.0,0.2,-0.2,2393.057,13.34,0.013,347.0
13,2022-09-25T00:00:00,2400.0,42.79,6.0312,-0.02,-0.001,-0.021,63.0,56.0,67.0,12.8,1504.9,128.4,0.2,-0.2,2393.012,13.34,0.02,267.1
13,2022-09-25T00:30:00,2400.0,42.79,6.0312,-0.007,-0.005,0.013,60.0,54.0,58.0,12.8,1504.9,130.4,0.3,-0.3,2393.006,13.34,0.008,234.5
13,2022-09-25T01:00:00,2400.0,42.79,6.0312,-0.006,0.019,-0.04,61.0,57.0,53.0,12.8,1504.9,131.1,0.2,-0.3,2392.981,13.34,0.019,342.5
13,2022-09-25T01:30:00,2400.0,42.79,6.0312,0.007,-0.008,0.025,66.0,53.0,57.0,12.9,1504.9,132.7,0.2,-0.3,2392.983,13.34,0.01,138.8
13,2022-09-25T02:00:00,2400.0,42.79,6.0312,0.001,-0.012,-0.019,62.0,58.0,61.0,12.8,1504.9,134.3,0.0,-0.2,2393.006,13.34,0.012,175.2
13,2022-09-25T02:30:00,2400.0,42.79,6.0312,-0.002,-0.016,0.007,62.0,55.0,54.0,12.9,1504.9,135.4,0.2,-0.3,2392.976,13.34,0.016,187.1
13,2022-09-25T03:00:00,2400.0,42.79,6.0312,-0.013,-0.003,-0.019,61.0,53.0,57.0,12.8,1504.9,135.6,0.2,-0.3,2392.977,13.34,0.013,257.0
13,2022-09-25T03:30:00,2400.0,42.79,6.0312,-0.002,0.0,0.012,61.0,56.0,58.0,12.8,1504.9,136.8,0.1,-0.2,2393.0,13.34,0.002,270.0
13,2022-09-25T04:00:00,2400.0,42.79,6.0312,0.004,0.0,-0.001,61.0,59.0,53.0,12.8,1504.9,137.5,0.1,-0.3,2393.081,13.34,0.004,90.0
13,2022-09-25T04:30:00,2400.0,42.79,6.0312,-0.004,-0.003,-0.013,61.0,53.0,58.0,12.8,1504.9,140.1,0.2,-0.3,2393.112,13.34,0.005,233.1
13,2022-09-25T05:00:00,2400.0,42.79,6.0312,-0.022,0.001,-0.014,61.0,56.0,54.0,12.8,1504.9,140.1,0.1,-0.3,2393.115,13.34,0.022,272.6
13,2022-09-25T05:30:00,2400.0,42.79,6.0312,-0.002,-0.014,0.034,62.0,64.0,59.0,12.8,1504.9,142.1,0.1,-0.3,2393.094,13.34,0.014,188.1
13,2022-09-25T06:00:00,2400.0,42.79,6.0312,-0.018,0.005,0.002,61.0,55.0,56.0,12.8,1504.9,144.9,0.1,-0.3,2393.14,13.34,0.018,285.5
13,2022-09-25T06:30:00,2400.0,42.79,6.0312,-0.029,-0.014,0.016,61.0,55.0,59.0,12.8,1504.9,138.1,0.1,-0.3,2393.119,13.34,0.032,244.2
13,2022-09-25T07:00:00,2400.0,42.79,6.0312,-0.018,0.026,-0.02,64.0,59.0,59.0,12.8,1504.9,136.5,0.1,-0.2,2393.17,13.34,0.031,325.3
13,2022-09-25T07:30:00,2400.0,42.79,6.0312,-0.019,-0.001,-0.044,61.0,54.0,58.0,12.8,1504.9,134.0,0.1,-0.3,2393.129,13.34,0.019,267.0
13,2022-09-25T08:00:00,2400.0,42.79,6.0312,0.0,0.02,0.007,64.0,55.0,59.0,12.8,1504.9,134.1,0.1,-0.3,2393.13,13.34,0.02,0.0
13,2022-09-25T08:30:00,2400.0,42.79,6.0312,-0.022,-0.002,-0.034,64.0,55.0,56.0,12.8,1504.9,136.5,0.1,-0.3,2393.111,13.34,0.022,264.8
13,2022-09-25T09:00:00,2400.0,42.79,6.0312,-0.01,0.003,-0.022,65.0,54.0,58.0,12.8,1504.9,135.8,0.2,-0.3,2393.093,13.34,0.01,286.7
13,2022-09-25T09:30:00,2400.0,42.79,6.0312,0.011,0.006,-0.009,68.0,56.0,55.0,12.8,1504.9,134.0,0.2,-0.2,2393.032,13.34,0.012,61.4
13,2022-09-25T10:00:00,2400.0,42.79,6.0312,0.009,0.0,0.002,64.0,56.0,59.0,12.8,1504.9,130.2,0.1,-0.2,2393.027,13.34,0.009,90.0
13,2022-09-25T10:30:00,2400.0,42.79,6.0312,0.001,-0.005,0.003,65.0,55.0,61.0,12.8,1504.9,129.6,0.2,-0.3,2393.016,13.34,0.005,168.7
13,2022-09-25T11:00:00,2400.0,42.79,6.0312,-0.001,0.007,0.019,60.0,58.0,58.0,12.8,1504.9,132.7,0.2,-0.1,2393.011,13.34,0.007,351.9
13,2022-09-25T11:30:00,2400.0,42.79,6.0312,-0.002,-0.013,0.036,58.0,64.0,58.0,12.8,1504.9,131.6,0.1,-0.3,2393.01,13.34,0.013,188.7
13,2022-09-25T12:00:00,2400.0,42.79,6.0312,0.0,0.002,-0.001,65.0,58.0,53.0,12.8,1504.9,130.7,0.2,-0.2,2393.011,13.34,0.002,0.0
13,2022-09-25T13:00:00,2400.0,42.79,6.0312,0.002,0.018,0.0,64.0,55.0,54.0,12.8,1504.9,132.1,0.1,-0.2,2392.937,13.34,0.018,6.3
13,2022-09-25T13:30:00,2400.0,42.79,6.0312,-0.007,-0.006,-0.019,60.0,59.0,56.0,12.9,1504.9,132.7,0.2,-0.3,2392.973,13.34,0.009,229.4
13,2022-09-25T14:00:00,2400.0,42.79,6.0312,0.011,-0.002,0.022,62.0,57.0,57.0,12.8,1504.9,133.2,0.2,-0.2,2392.974,13.34,0.011,100.3
13,2022-09-25T14:30:00,2400.0,42.79,6.0312,0.008,0.0,0.011,63.0,54.0,59.0,12.8,1504.9,132.7,0.2,-0.3,2392.955,13.34,0.008,90.0
13,2022-09-25T15:00:00,2400.0,42.79,6.0312,0.013,-0.006,-0.01,57.0,56.0,57.0,12.8,1504.9,133.7,0.2,-0.3,2392.969,13.34,0.014,114.8
13,2022-09-25T15:30:00,2400.0,42.79,6.0312,0.01,-0.003,-0.033,65.0,56.0,56.0,12.8,1504.9,135.6,0.2,-0.2,2393.053,13.34,0.01,106.7
13,2022-09-25T16:00:00,2400.0,42.79,6.0312,-0.001,0.005,-0.034,63.0,53.0,56.0,12.8,1504.9,136.6,0.2,-0.3,2393.088,13.34,0.005,348.7
13,2022-09-25T16:30:00,2400.0,42.79,6.0312,0.008,-0.004,0.007,60.0,51.0,58.0,12.8,1504.9,137.4,0.2,-0.2,2393.085,13.34,0.008,116.6
13,2022-09-25T17:00:00,2400.0,42.79,6.0312,-0.002,0.018,-0.01,62.0,54.0,59.0,12.8,1504.9,137.5,0.1,-0.2,2393.074,13.34,0.018,353.7
13,2022-09-25T17:30:00,2400.0,42.79,6.0312,-0.018,-0.014,0.016,65.0,55.0,59.0,12.8,1504.9,138.1,0.2,-0.3,2393.147,13.34,0.022,232.1
13,2022-09-25T18:00:00,2400.0,42.79,6.0312,-0.008,-0.01,0.001,66.0,59.0,62.0,12.8,1504.9,137.0,0.2,-0.3,2393.186,13.34,0.012,218.7
13,2022-09-25T18:30:00,2400.0,42.79,6.0312,-0.007,-0.015,-0.021,68.0,58.0,58.0,12.8,1504.9,137.1,0.2,-0.3,2393.146,13.34,0.016,205.0
13,2022-09-25T19:00:00,2400.0,42.79,6.0312,-0.016,-0.009,-0.036,65.0,60.0,59.0,12.8,1504.9,137.7,0.2,-0.3,2393.154,13.34,0.018,240.6
13,2022-09-25T19:30:00,2400.0,42.79,6.0312,0.007,0.006,-0.023,61.0,55.0,57.0,12.8,1504.9,136.8,0.2,-0.3,2393.161,13.34,0.009,49.4
13,2022-09-25T20:00:00,2400.0,42.79,6.0312,-0.015,0.0,-0.003,63.0,60.0,60.0,12.8,1504.9,135.7,0.1,-0.3,2393.171,13.34,0.015,270.0
13,2022-09-25T20:30:00,2400.0,42.79,6.0312,-0.013,0.0,-0.004,69.0,61.0,60.0,12.8,1504.9,138.1,0.2,-0.3,2393.183,13.34,0.013,270.0
13,2022-09-25T21:00:00,2400.0,42.79,6.0312,-0.003,0.007,0.001,65.0,57.0,64.0,12.8,1504.9,137.8,0.2,-0.3,2393.138,13.34,0.007,336.8
13,2022-09-25T21:30:00,2400.0,42.79,6.0312,0.0,0.007,-0.016,64.0,59.0,63.0,12.8,1504.9,140.7,0.1,-0.3,2393.105,13.34,0.007,0.0
13,2022-09-25T22:00:00,2400.0,42.79,6.0312,-0.011,0.021,-0.015,60.0,56.0,60.0,12.8,1504.9,142.7,0.3,-0.3,2393.078,13.34,0.023,332.4
13,2022-09-25T22:30:00,2400.0,42.79,6.0312,-0.005,0.003,-0.035,64.0,56.0,57.0,12.8,1504.9,141.4,0.2,-0.3,2393.049,13.34,0.005,301.0
13,2022-09-25T23:00:00,2400.0,42.79,6.0312,-0.013,0.014,-0.026,66.0,59.0,59.0,12.9,1504.9,141.8,0.2,-0.3,2393.079,13.34,0.019,317.1
